This demonstration page uses our WeatherBlox Daily Observations layout. Learn more.

38.88101, -77.10428

Hourly Observations for November 11, 2016

Temp ( °F °C ) Dew Point ( °F °C ) Humidity (%) Winds ( mph kmh ) Pressure ( in mb ) Visibility ( mi km ) Precip ( " mm )
12:52 am 00:52 Clear 46 7.8 36 2.2 68 68 SSW 9 15 29.83 1010 10 16.09344 0 0
1:52 am 01:52 Clear 46 7.8 35 1.7 66 66 WSW 10 17 29.83 1010 10 16.09344 0 0
2:52 am 02:52 Clear 50 10 32 0 50 50 WSW 10 17 29.83 1010 10 16.09344 0 0
3:52 am 03:52 Clear 47 8.3 32 0 56 56 SSW 9 15 29.83 1010 10 16.09344 0 0
4:52 am 04:52 Clear 47 8.3 33 0.6 59 59 SSW 7 11 29.83 1010 10 16.09344 0 0
5:52 am 05:52 Clear 49 9.4 33 0.6 55 55 S 5 7 29.83 1010 10 16.09344 0 0
6:52 am 06:52 Sunny 56 13.3 37 2.8 49 49 NW 12 19 29.85 1011 10 16.09344 0 0
7:52 am 07:52 Sunny 57 13.9 38 3.3 49 49 WNW 12 19 29.88 1012 10 16.09344 0 0
8:52 am 08:52 Partly Cloudy 59 15 39 3.9 48 48 WNW 17 28 29.91 1013 10 16.09344 0 0
9:52 am 09:52 Partly Cloudy 61 16.1 40 4.4 46 46 NW 14 22 29.91 1013 10 16.09344 0 0
10:52 am 10:52 Mostly Cloudy 62 16.7 40 4.4 44 44 NW 9 15 29.91 1013 10 16.09344 0 0
11:52 am 11:52 Mostly Cloudy 66 18.9 40 4.4 39 39 NW 20 31 29.91 1013 10 16.09344 0 0
12:52 pm 12:52 Mostly Cloudy 63 17.2 39 3.9 41 41 WNW 8 13 29.88 1012 10 16.09344 0 0
1:52 pm 13:52 Mostly Cloudy 65 18.3 36 2.2 34 34 NW 15 24 29.88 1012 10 16.09344 0 0
2:52 pm 14:52 Mostly Cloudy 64 17.8 37 2.8 37 37 NW 20 31 29.91 1013 10 16.09344 0 0
3:52 pm 15:52 Mostly Cloudy 63 17.2 34 1.1 34 34 NW 10 17 29.94 1014 10 16.09344 0 0
4:52 pm 16:52 Mostly Cloudy 62 16.7 34 1.1 35 35 NW 14 22 29.97 1015 10 16.09344 0 0
5:52 pm 17:52 Mostly Cloudy 60 15.6 35 1.7 39 39 NW 10 17 30 1016 10 16.09344 0 0
6:52 pm 18:52 Partly Cloudy 60 15.6 35 1.7 39 39 NNW 17 28 30.06 1018 10 16.09344 0 0
7:36 pm 19:36 Mostly Cloudy 57 14 36 2 44 44 NNW 22 35 30.09 1019 10 16.09344 0 0
7:52 pm 19:52 Mostly Cloudy 57 13.9 32 0 39 39 NNW 17 28 30.12 1020 10 16.09344 0 0
8:52 pm 20:52 Partly Cloudy 54 12.2 28 -2.2 37 37 NNW 24 39 30.15 1021 10 16.09344 0 0
9:52 pm 21:52 Mostly Clear 51 10.6 27 -2.8 39 39 N 15 24 30.18 1022 10 16.09344 0 0
10:52 pm 22:52 Partly Cloudy 50 10 27 -2.8 41 41 N 15 24 30.21 1023 10 16.09344 0 0
11:52 pm 23:52 Mostly Cloudy 48 8.9 26 -3.3 42 42 N 18 30 30.21 1023 10 16.09344 0 0

Powered by AerisWeather